TimeCDT,TemperatureF,Dew PointF,Humidity,Sea Level PressureIn,VisibilityMPH,Wind Direction,Wind SpeedMPH,Gust SpeedMPH,PrecipitationIn,Events,Conditions,WindDirDegrees,DateUTC
12:53 AM,52.0,46.9,83,29.96,10.0,SSW,5.8,-,N/A,,Mostly Cloudy,200,2012-03-23 05:53:00
1:53 AM,52.0,46.9,83,29.97,10.0,Calm,Calm,-,N/A,,Mostly Cloudy,0,2012-03-23 06:53:00
2:53 AM,48.9,46.0,90,29.97,10.0,South,4.6,-,N/A,,Partly Cloudy,190,2012-03-23 07:53:00
3:53 AM,48.0,45.0,89,29.98,10.0,SW,6.9,-,N/A,,Partly Cloudy,220,2012-03-23 08:53:00
4:53 AM,48.9,46.0,90,29.99,10.0,SW,8.1,-,N/A,,Partly Cloudy,230,2012-03-23 09:53:00
5:53 AM,46.9,45.0,93,30.00,10.0,SW,8.1,-,N/A,,Partly Cloudy,220,2012-03-23 10:53:00
6:53 AM,46.0,44.1,93,30.01,10.0,SSW,6.9,-,N/A,,Clear,210,2012-03-23 11:53:00
7:53 AM,48.9,45.0,86,30.02,10.0,WSW,8.1,-,N/A,,Partly Cloudy,240,2012-03-23 12:53:00
8:53 AM,53.6,46.4,77,30.04,10.0,WSW,6.9,-,N/A,,Partly Cloudy,250,2012-03-23 13:53:00
9:53 AM,59.0,46.9,64,30.04,10.0,West,9.2,-,N/A,,Partly Cloudy,270,2012-03-23 14:53:00
10:53 AM,63.0,44.1,50,30.04,10.0,West,8.1,-,N/A,,Partly Cloudy,260,2012-03-23 15:53:00
11:53 AM,66.9,45.0,45,30.04,10.0,West,5.8,-,N/A,,Clear,260,2012-03-23 16:53:00
12:53 PM,69.1,44.1,40,30.03,10.0,WSW,5.8,-,N/A,,Clear,250,2012-03-23 17:53:00
1:53 PM,72.0,48.0,43,30.01,10.0,NNE,8.1,-,N/A,,Clear,20,2012-03-23 18:53:00
2:53 PM,72.0,46.9,41,29.98,10.0,NE,6.9,-,N/A,,Clear,40,2012-03-23 19:53:00
3:53 PM,73.0,46.0,38,29.96,10.0,Variable,5.8,-,N/A,,Clear,0,2012-03-23 20:53:00
4:53 PM,75.0,46.9,37,29.95,10.0,North,8.1,-,N/A,,Clear,350,2012-03-23 21:53:00
5:53 PM,73.9,46.0,37,29.94,10.0,NNW,3.5,-,N/A,,Clear,330,2012-03-23 22:53:00
6:53 PM,73.0,46.0,38,29.94,10.0,Calm,Calm,-,N/A,,Clear,0,2012-03-23 23:53:00
7:53 PM,66.0,48.0,52,29.94,10.0,North,5.8,-,N/A,,Clear,360,2012-03-24 00:53:00
8:53 PM,64.0,48.9,58,29.95,10.0,Calm,Calm,-,N/A,,Clear,0,2012-03-24 01:53:00
9:53 PM,64.0,46.9,54,29.96,10.0,Calm,Calm,-,N/A,,Clear,0,2012-03-24 02:53:00
10:53 PM,62.1,48.0,60,29.97,10.0,Calm,Calm,-,N/A,,Clear,0,2012-03-24 03:53:00
11:53 PM,61.0,46.9,60,29.98,10.0,Calm,Calm,-,N/A,,Clear,0,2012-03-24 04:53:00